Regional Weather Roundup
Issued by NWS

Home | Current Version | Previous Version | Graphics & Text | Print | Product List | Glossary On
Versions: 1 2 3 4 5 6 7 8 9 10 11 12 13 14 15 16 17 18 19 20 21 22 23 24 25 26 27 28 29 30 31 32 33 34 35 36 37 38 39 40 41 42 43 44 45 46 47 48 49 50
228
ASUS45 KBOU 232307
RWRCO

WEATHER ROUNDUP FOR COLORADO
NATIONAL WEATHER SERVICE DENVER/BOULDER CO
500 PM MDT THU MAR 23 2017

NOTE: "FAIR" INDICATES FEW OR NO CLOUDS BELOW 12000 FEET WITH NO
SIGNIFICANT WEATHER AND/OR OBSTRUCTIONS TO VISIBILITY.

COZ001>005-013-030-031-240000-
...NORTHWEST COLORADO...

CITY           SKY/WX    TMP DP  RH WIND       PRES   REMARKS
CRAIG          FAIR      56  20  24 W17       29.72R
HAYDEN         PTSUNNY   54  19  26 W12G18    29.72R
MEEKER         FAIR      54  22  28 W13       29.73R
MOUNT WERNER   NOT AVBL
STEAMBOAT SPGS FAIR      52  23  32 CALM      29.72F
WALDEN         NOT AVBL
$$

COZ006>008-011-240000-
...WEST CENTRAL VALLEYS...

CITY           SKY/WX    TMP DP  RH WIND       PRES   REMARKS
GRAND JUNCTION LGT RAIN  52  39  61 W14       29.74R
MONTROSE       PTSUNNY   44  38  79 E14       29.78F
EAGLE          NOT AVBL
RIFLE          FAIR      56  30  37 W10       29.71R
DELTA          PTSUNNY   53  35  50 SE8       29.77S
NUCLA          CLOUDY    45  34  65 N3        29.83R
$$

COZ017>023-064>068-240000-
...SOUTHWEST COLORADO...

CITY           SKY/WX    TMP DP  RH WIND       PRES   REMARKS
DURANGO        CLOUDY    38  38 100 CALM      29.78F
CORTEZ         RAIN      37  35  92 W22G32    29.80F FOG
PAGOSA SPRINGS LGT SNOW  35  34  96 S5        29.81S WCI  31
TELLURIDE      LGT SNOW  32  32  99 CALM      29.84S
WOLF CREEK PAS SNOW      21  21 100 S16G28    29.88R VSB 1/4 WCI   7
$$

COZ009-010-012-014-032>034-037-058>063-240000-
...CENTRAL COLORADO...

CITY           SKY/WX    TMP DP  RH WIND       PRES   REMARKS
ASPEN          LGT SNOW  36  33  89 CALM      29.80R FOG
BUENA VISTA    CLOUDY    45  29  53 NW10G22   29.74R
COPPER MTN     FAIR      34  21  60 MISG      29.89R
BERTHOUD PASS  FAIR      28  18  64 W13       29.90S WCI  18
COTTONWOOD PAS CLOUDY    37  28  70 SW20G26   29.79F
GUNNISON       LGT RAIN  37  34  89 SE13      29.78R
KREMMLING      CLOUDY    55  25  30 W12G17    29.74R
LEADVILLE      PTSUNNY   37  18  46 VRB3      29.80F
MONARCH PASS   LGT SNOW  27  23  86 W16       29.94F VSB 1   WCI  14
SALIDA         PTSUNNY   50  26  39 W18G28    29.77R
SUNLIGHT       CLOUDY    30  23  74 SW5       29.89S WCI  25
WILKERSON PASS CLOUDY    36  10  35 SW9G24    29.86R
$$

COZ069>075-240000-
...SAN LUIS VALLEY/SANGRE DE CRISTO MOUNTAINS...

CITY           SKY/WX    TMP DP  RH WIND       PRES   REMARKS
ALAMOSA        FAIR      51  24  34 SW17      29.70R
LA VETA PASS   NOT AVBL
SAGUACHE       FAIR      52  27  37 N18       29.70S
$$

COZ035-036-038>040-240000-
...NORTHERN COLORADO FRONT RANGE...

CITY           SKY/WX    TMP DP  RH WIND       PRES   REMARKS
DENVER INTL AP PTSUNNY   72   7   8 SW17G29   29.53R
DMNS CITY PARK   N/A     71   6   8 SW10G25   29.53R
AURORA         PTSUNNY   72   5   7 S16       29.55R
FRONT RANGE AP NOT AVBL
ERIE MUNI ARPT FAIR      71   6   8 SW13G18   29.54R
BOULDER MUN AP FAIR      68  18  14 W16G26    29.56R
CENTENNIAL     FAIR      70   7   8 SW14G24   29.55F
BROOMFIELD     PTSUNNY   68  12  11 S17G35    29.58R
FORT COLLINS   FAIR      70  15  12 NW13G18   29.54R
LONGMONT       FAIR      71  17  12 W16       29.56R
$$

COZ041-046-047-076>085-087-088-240000-
...PIKES PEAK/PALMER DIVIDE AND SOUTHERN FOOTHILLS...

CITY           SKY/WX    TMP DP  RH WIND       PRES   REMARKS
COLO. SPRINGS  PTSUNNY   66  11  11 S18       29.59R
A. F. ACADEMY  FAIR      65   4   9 S26G36    29.59S
SCHRIEVER AFB  FAIR      66  12  12 S18G29    29.60R
ELLICOTT         N/A    N/A N/A N/A SW17G28   29.60R
FALCON         FAIR      64  10  12 S26G38    29.65R
FORT CARSON    FAIR      67  13  12 SW22G29   29.56S
LIMON          CLOUDY    66  23  19 W10G33    29.58R
MONUMENT HILL  FAIR      61  10  13 S22G30    29.64S
TRINIDAD       FAIR      70  20  15 S17G44    29.54F
$$

COZ042>045-048>051-090-091-240000-
...NORTHEAST COLORADO...

CITY           SKY/WX    TMP DP  RH WIND       PRES   REMARKS
GREELEY ARPT   FAIR      78  10   7 S17G24    29.52R
AKRON          FAIR      75  13   9 SW17G36   29.52F
BURLINGTON     FAIR      80  18  10 S31G44    29.50F
WRAY           FAIR      82  18   9 S17       29.48F
STERLING       FAIR      82  21  10 SW9G18    29.47F
HOLYOKE        FAIR      77  45  31 E17       29.49F
FORT MORGAN    FAIR      75  12   9 SW7       29.51F
$$

COZ086-089-092>099-240000-
...SOUTHEAST COLORADO...

CITY           SKY/WX    TMP DP  RH WIND       PRES   REMARKS
PUEBLO         FAIR      75  17  11 SW9       29.49F
LA JUNTA       FAIR      77  24  14 S33G53    29.49R
LAMAR          FAIR      81  22  11 SW26G35   29.46F
SPRINGFIELD      N/A     82  15   8 S30G47    29.49F
$$




USA.gov is the U.S. government's official web portal to all federal, state and local government web resources and services.